TURKMENALEM52E/MONACOSAT

Last updated on Sat Aug 22 2026 00:02:58 GMT+0000 (Coordinated Universal Time)

1 40617U 15023A 26233.49257459 .00000102 00000+0 00000+0 0 9991 2 40617 0.0124 108.0208 0003053 41.6566 49.4883 1.00270150 41507
UTC large
Height (km)
Speed (km/s)
/
Latitude / Longitude
Inclination (degrees)
Orbital Period (minutes)
Azimuth
Elevation
Range (km)
Doppler Factor

Next 0 passes for location: London (51.5072 / 0.1276)

No passes found over London.
TURKMENALEM52E/MONACOSAT